Terre Haute, IN

8:22 AM EST on December 15, 2019 (GMT -0500)
Terre Haute International-Hulman

Weather History for KHUF - October, 2019

Change the Weather History Date:

Sunday, October 27, 2019

  Actual Average Record
Temperature  
Mean Temperature 54 °F 51 °F  
Max Temperature 63 °F 62 °F 85 °F (1963)
Min Temperature 44 °F 40 °F 24 °F (1962)
Degree Days  
Heating Degree Days 11 14  
Month to date heating degree days 241 288  
Since 1 July heating degree days 243 366  
Cooling Degree Days 0 0  
Month to date cooling degree days 34 12  
Year to date cooling degree days 1298 990  
Growing Degree Days 4 (Base 50)    
Moisture  
Dew Point 45 °F    
Average Humidity 73    
Maximum Humidity 93    
Minimum Humidity 52    
Precipitation  
Precipitation T in 0.11 in 1.60 in (1991)
Month to date precipitation 4.50 3.16  
Year to date precipitation 42.43 37.86  
Sea Level Pressure  
Sea Level Pressure 29.92 in    
Wind  
Wind Speed 7 mph (WSW)    
Max Wind Speed 26 mph    
Max Gust Speed 36 mph    
Visibility 10 miles    
Events Rain    
T = Trace of Precipitation, MM = Missing Value Source: NWS Daily Summary

Daily Weather History Graph

Daily Weather History Graph

Search for Another Location

Airport or City:

Astronomy

Oct. 27, 2019 Rise Set
Actual Time 8:11 AM EDT 6:54 PM EDT
Civil Twilight 7:44 AM EDT 7:21 PM EDT
Nautical Twilight 7:12 AM EDT 7:53 PM EDT
Astronomical Twilight 6:41 AM EDT 8:24 PM EDT
Moon 7:20 AM EDT (10/27) 7:02 PM EDT (10/27)
Length of Visible Light 11h 37m
Length of Day
10h 42m
Waning Crescent, 0% of the Moon is Illuminated
Oct 27
Waning Crescent
Oct 27
New
Nov 4
First Quarter
Nov 12
Full
Nov 19
Last Quarter

Hourly Weather History & Observations

Time (EDT) Temp. Dew Point Humidity Pressure Visibility Wind Dir Wind Speed Gust Speed Precip Events Conditions
12:03 AM 51.1 °F 46.0 °F 83% 29.59 in 10.0 mi SW 16.1 mph 38.0 mph 0.00 in Rain Light Rain
12:53 AM 50.0 °F 46.0 °F 86% 29.63 in 10.0 mi WSW 20.7 mph 34.5 mph 0.01 in Rain Light Rain
1:08 AM 50.0 °F 46.0 °F 86% 29.64 in 10.0 mi WSW 23.0 mph 35.7 mph 0.00 in Rain Light Rain
1:53 AM 50.0 °F 46.0 °F 86% 29.68 in 10.0 mi WSW 18.4 mph 28.8 mph 0.00 in   Overcast
2:53 AM 50.0 °F 46.0 °F 86% 29.73 in 10.0 mi WSW 18.4 mph 27.6 mph N/A   Overcast
3:53 AM 50.0 °F 46.9 °F 89% 29.76 in 10.0 mi WSW 13.8 mph - N/A   Overcast
4:53 AM 51.1 °F 46.9 °F 86% 29.80 in 10.0 mi West 13.8 mph 24.2 mph N/A   Overcast
5:39 AM 51.1 °F 46.9 °F 86% 29.83 in 10.0 mi West 10.4 mph - N/A   Overcast
5:53 AM 51.1 °F 46.9 °F 86% 29.84 in 10.0 mi West 13.8 mph 20.7 mph N/A   Overcast
6:01 AM 51.1 °F 46.9 °F 86% 29.84 in 10.0 mi West 10.4 mph 20.7 mph N/A   Overcast
6:53 AM 51.1 °F 46.9 °F 86% 29.87 in 10.0 mi West 10.4 mph 18.4 mph N/A   Overcast
7:29 AM 50.0 °F 45.0 °F 83% 29.90 in 10.0 mi West 10.4 mph 20.7 mph N/A   Overcast
7:53 AM 50.0 °F 45.0 °F 83% 29.91 in 10.0 mi West 8.1 mph - N/A   Overcast
8:53 AM 48.9 °F 44.1 °F 83% 29.94 in 10.0 mi West 5.8 mph - N/A   Mostly Cloudy
9:00 AM 48.9 °F 44.1 °F 83% 29.94 in 9.0 mi West 3.5 mph - N/A   Scattered Clouds
9:19 AM 48.9 °F 44.1 °F 83% 29.95 in 7.0 mi WSW 5.8 mph - N/A   Mostly Cloudy
9:53 AM 48.9 °F 44.1 °F 83% 29.97 in 8.0 mi WSW 8.1 mph - N/A   Partly Cloudy
10:20 AM 51.1 °F 45.0 °F 80% 29.98 in 10.0 mi SW 8.1 mph - N/A   Mostly Cloudy
10:51 AM 51.8 °F 44.6 °F 76% 29.99 in 9.0 mi SW 9.2 mph - N/A   Scattered Clouds
10:53 AM 52.0 °F 45.0 °F 77% 29.99 in 9.0 mi SW 9.2 mph - N/A   Scattered Clouds
11:01 AM 52.0 °F 45.0 °F 77% 29.99 in 10.0 mi SSW 10.4 mph - N/A   Mostly Cloudy
11:07 AM 52.0 °F 45.0 °F 77% 30.00 in 10.0 mi SW 8.1 mph - N/A   Scattered Clouds
11:53 AM 54.0 °F 44.1 °F 69% 30.01 in 10.0 mi WNW 6.9 mph - N/A   Clear
12:53 PM 57.0 °F 44.1 °F 62% 30.02 in 10.0 mi North - - N/A   Clear
1:53 PM 59.0 °F 45.0 °F 60% 30.00 in 10.0 mi South 3.5 mph - N/A   Clear
2:53 PM 61.0 °F 45.0 °F 56% 29.99 in 8.0 mi SSW 6.9 mph - N/A   Clear
3:53 PM 62.1 °F 45.0 °F 53% 30.00 in 10.0 mi SSW 6.9 mph - N/A   Clear
4:53 PM 63.0 °F 44.1 °F 50% 30.00 in 10.0 mi WSW 6.9 mph - N/A   Clear
5:53 PM 62.1 °F 45.0 °F 53% 30.01 in 10.0 mi South 9.2 mph - N/A   Clear
6:53 PM 57.0 °F 46.0 °F 67% 30.01 in 10.0 mi South 4.6 mph - N/A   Clear
7:53 PM 53.1 °F 45.0 °F 74% 30.03 in 10.0 mi Calm Calm - N/A   Clear
8:53 PM 48.0 °F 45.0 °F 89% 30.03 in 10.0 mi Calm Calm - N/A   Clear
9:53 PM 46.0 °F 43.0 °F 89% 30.05 in 10.0 mi Calm Calm - N/A   Clear
10:53 PM 46.0 °F 43.0 °F 89% 30.06 in 10.0 mi Calm Calm - N/A   Clear
11:53 PM 46.9 °F 44.1 °F 90% 30.05 in 10.0 mi Calm Calm - N/A   Clear